Find Starlink 31744

NORAD ID: 59494 Int'l Des: 2024-071 Owner: SPXS Country: US Constellation: starlink operational
LEOCIRCULAR

Live Position

Loading 3D Globe...

About Starlink 31744

Description loading...

Upcoming Passes

Passes for default location (London). Set your location on the main map for personalized predictions.

Altitude History

Loading altitude history...

Two-Line Element Set

1 59494U 24071L 26126.14236603 -.00000600 00000-0 -12264-4 0 9994
2 59494 43.0036 22.9472 0001453 280.7834 79.2855 15.27575756116903
Epoch: May 6, 2026 • Age: 8 hours

Current Status

Altitude 485.9 km
Velocity 7.63 km/s
Sub-Earth Point 37.03°N, 106.39°E
Launch Date Apr 13, 2024
Age 2 years
Type internet

Technical Details

Classification Payload
Mass 730.00 kg
Dry Mass 700.00 kg
Total Mass 730.00 kg
Length 0.30 m
Diameter 4.10 m
Span 29.00 m
Shape Box + pan
Manufacturer SPXS
Bus Type Starlink V2M
Phase Status In Orbit
Owner/State SPXS/US

Most Searched